Regional Weather Roundup
Issued by NWS

Home | Current Version | Previous Version | Graphics & Text | Print | Product List | Glossary On
Versions: 1 2 3 4 5 6 7 8 9 10 11 12 13 14 15 16 17 18 19 20 21 22 23 24 25 26 27 28 29 30 31 32 33 34 35 36 37 38 39 40 41 42 43 44 45 46 47
000
ASUS45 KBOI 030610
RWRID

IDAHO REGIONAL WEATHER ROUNDUP
NATIONAL WEATHER SERVICE BOISE ID
1200 AM MDT THU SEP 03 2015

NOTE: "FAIR" INDICATES FEW OR NO CLOUDS BELOW 12000 FEET
WITH NO SIGNIFICANT WEATHER AND/OR OBSTRUCTIONS TO VISIBILITY

IDZ012-014-030700-
SOUTHWEST IDAHO


CITY           SKY/WX    TMP DP  RH WIND       PRES   REMARKS
BOISE          CLOUDY    67  41  38 W12       29.74S
CALDWELL       CLOUDY    64  37  36 W15       29.78R
MOUNTAIN HOME  CLEAR     64  37  37 W10       29.74R
$$

IDZ016-017-030700-
SOUTHCENTRAL IDAHO


CITY           SKY/WX    TMP DP  RH WIND       PRES   REMARKS
BURLEY         CLEAR     56  46  69 S3        29.77S
JEROME         MOCLDY    63  42  46 W5        29.78S
TWIN FALLS     MOCLDY    68  35  29 SW12      29.79R
$$

IDZ019>023-030700-
SOUTHEAST IDAHO


CITY           SKY/WX    TMP DP  RH WIND       PRES   REMARKS
IDAHO FALLS    CLEAR     65  44  46 CALM      29.83F
POCATELLO      CLEAR     66  42  41 CALM      29.80F
REXBURG        PTCLDY    68  39  34 S6        29.85F
$$

IDZ006-010-011-018-031-032-030700-
CENTRAL IDAHO MOUNTAINS


CITY           SKY/WX    TMP DP  RH WIND       PRES   REMARKS
MCCALL         LGT RAIN  53  43  68 VRB6      29.88F
HAILEY         MOCLDY    59  32  36 NW8       29.89S
STANLEY          N/A     48  29  47 CALM      29.93F
SALMON         PTCLDY    54  34  47 CALM      29.76S
CHALLIS        CLEAR     56  31  38 SE3       29.82F
$$

IDZ002-004-006-007-026-030700-
NORTHERN IDAHO


CITY           SKY/WX    TMP DP  RH WIND       PRES   REMARKS
LEWISTON       CLOUDY    62  46  55 NE7       29.87R
LOWELL           N/A     57  53  86 CALM      29.91R
COEUR D`ALENE  CLEAR     55  45  67 S7        29.86F
MULLAN PASS    CLOUDY    41  36  82 S7        29.94F
$$



USA.gov is the U.S. government's official web portal to all federal, state and local government web resources and services.